Torna al catalogo

DELTA 1 DEB

AttivoUNKNOWN
NORAD 10715·DEBRIS·🇺🇸 United States

Lanciato Jul 29, 1976 da Vandenberg Space Force Base

Loading…

Prossimi Passaggi (prossime 24 ore)

TLE

AggiornatoSource: Space-Track

Epoca: Sep 14, 2026, 06:06 UTC

1 10715U 76077AL  26257.25429744 -.00000009  00000-0  41292-3 0  9991
2 10715 102.5617   8.7402 0435231  91.4720 300.1516 11.63952636132554

Traccia DELTA 1 DEB in tempo reale con AllMySat

Download on the App Store